{"data":{"norad_id":61615,"epoch":"2026-05-25T04:20:07.429056Z","epoch_age_seconds":52638,"freshness":"FRESH","line1":"1 61615U 24189B   26145.18064154  .00002290  00000+0  18387-3 0  9992","line2":"2 61615  97.5204 166.0484 0004090  72.5776 287.5896 15.01014946 86992","mean_motion":15.01014946,"eccentricity":0.000409,"inclination_deg":97.5204,"raan_deg":166.0484,"arg_perigee_deg":72.5776,"mean_anomaly_deg":287.5896,"bstar":0.00018387,"rev_number":8699,"period_min":95.935087377871,"perigee_km":560.92605798977,"apogee_km":566.60453406792,"semimajor_km":6941.9022960288,"source":"CELESTRAK","updated_at":"2026-05-25T13:38:02.453296Z"}}